#timestamp,LO_Frequency,Hit,StdDev 
1508608815.9,286047002.7,N
1508608835.7,286047001.9,N
1508608855.6,286047004.3,N
1508608875.4,286047003.4,N
1508608895.2,286047003.7,N
1508608915.1,286047003.4,N
1508608916.0,286047003.4,N
1508608935.8,286047002.9,N
1508608955.7,286047005.3,N
1508608975.5,286047004.9,N
1508608995.3,286047006.3,N
1508609015.2,286047004.7,N
1508609035.0,286047003.9,N
1508609035.9,286047003.9,N
1508609055.7,286047003.6,N
1508609075.6,286047004.7,N
1508609095.4,286047004.4,N
1508609115.3,286047001.5,N
1508609135.1,286047005.5,N
1508609136.0,286047005.5,N
1508609155.8,286047004.6,N
1508609175.7,286047005.8,N
1508609195.5,286047004.8,N
1508609215.4,286047006.0,Y
1508609235.2,286047002.6,P
1508609255.0,286047001.9,P
1508609255.9,286047001.9,P
1508609275.8,286047000.2,N
1508609295.6,286047002.8,N
1508609315.4,286047001.9,N
1508609335.3,286047003.9,Y
1508609355.1,286047002.2,P
1508609375.9,286046999.9,N
1508609395.7,286047001.2,N
1508609415.5,286046998.1,N
1508609435.4,286046997.1,N
1508609455.2,286046997.8,N
1508609475.1,286046997.2,N
1508609476.0,286046997.2,N
1508609495.8,286046999.2,N
1508609515.6,286046997.8,N
1508609535.5,286046998.9,N
1508609555.3,286046997.1,N
1508609575.2,286046996.9,N
1508609595.9,286046998.4,N
1508609615.7,286046998.6,N
1508609635.6,286046999.3,N
1508609655.4,286046999.6,N
1508609675.3,286046997.3,N
1508609695.1,286046996.9,N
1508609696.0,286046996.9,N
1508609715.8,286046996.8,N
1508609735.7,286046998.3,N
1508609755.5,286046999.0,N
1508609775.3,286046997.0,N
1508609795.2,286046998.8,N
1508609815.0,286046996.9,N
1508609815.9,286046996.9,N
1508609835.8,286046998.9,N
1508609855.6,286046998.1,N
1508609875.4,286046998.6,N
1508609895.4,286047000.9,N
1508609915.3,286046998.9,N
1508609935.1,286046998.6,N
1508609955.9,286046998.7,N
1508609975.7,286047001.0,N
1508609995.5,286047001.2,N
1508610015.4,286046998.5,N
1508610035.2,286047000.4,N
1508610055.0,286046998.5,N
1508610056.0,286046998.5,N
1508610075.8,286046998.7,N
1508610095.6,286047001.2,N
1508610115.5,286047002.7,N
1508610135.3,286047001.0,N
1508610155.1,286047000.8,N
1508610175.9,286046998.7,N
1508610195.7,286046999.5,N
1508610215.6,286046997.0,N
1508610235.4,286046999.2,N
1508610255.2,286046999.1,N
1508610275.1,286046998.9,N
1508610276.0,286046998.9,N
1508610295.8,286046999.5,N
1508610315.6,286046998.2,N
1508610335.5,286047000.7,N
1508610355.3,286047000.8,N
1508610375.2,286047000.1,N
1508610395.9,286047002.8,N
1508610415.7,286047001.1,N
1508610435.6,286047001.1,N
1508610455.4,286046998.6,N
1508610475.2,286046999.3,N
1508610495.1,286046998.3,N
1508610496.0,286046998.3,N
1508610515.8,286047000.7,N
1508610535.7,286046998.5,N
1508610555.5,286047001.0,N
1508610575.3,286047001.2,N
1508610595.2,286047001.2,N
1508610615.9,286046999.0,N
1508610635.7,286046998.9,N
1508610655.6,286046999.3,N
1508610675.4,286046998.7,N
1508610695.3,286046998.2,N
1508610715.1,286046998.5,N
1508610716.0,286046998.5,N
1508610735.8,286046998.7,N
1508610755.7,286047000.3,N
1508610775.5,286047001.8,N
1508610795.3,286047002.7,N
1508610815.2,286047002.7,N
1508610835.0,286047002.4,N
1508610835.9,286047002.4,N
1508610855.8,286047002.1,N
1508610875.6,286047004.1,N
1508610895.4,286047004.4,N
1508610915.3,286047002.1,N
1508610935.1,286047002.8,N
1508610955.9,286047000.6,N
1508610975.7,286047000.8,N
1508610995.5,286047000.7,N
1508611015.4,286047002.4,N
1508611035.2,286047002.4,N
1508611055.0,286047002.7,N
1508611056.0,286047002.7,N
1508611075.8,286047002.7,N
1508611095.6,286047000.8,N
1508611115.5,286047000.3,N
1508611135.3,286046998.7,N
1508611155.1,286046998.6,N
1508611175.9,286047002.7,N
1508611195.7,286046999.9,N
1508611215.6,286047000.2,N
1508611235.4,286047001.0,N
1508611255.2,286046999.7,N
1508611275.1,286047001.6,N
1508611276.0,286047001.6,N
1508611295.8,286047003.9,N
1508611315.7,286047004.4,Y
1508611335.5,286047001.8,P
1508611355.3,286047000.6,P
1508611375.2,286047000.2,N
1508611395.0,286047000.2,N
1508611395.9,286047000.2,N
1508611415.7,286047002.2,Y
1508611435.6,286046999.9,P
1508611455.4,286047000.8,N
1508611475.3,286047000.9,N
1508611495.1,286047001.0,N
1508611496.0,286047001.0,N
1508611515.8,286047000.0,N
1508611535.7,286047000.1,N
1508611555.5,286046998.3,Y
1508611575.4,286046998.2,P
1508611595.2,286046998.8,N
1508611615.0,286046999.4,N
1508611615.9,286046999.4,N
1508611635.8,286046998.4,N
1508611655.6,286046999.0,N
1508611675.5,286046999.7,N
1508611695.3,286047001.2,N
1508611715.1,286046998.3,N
1508611735.9,286046999.2,N
1508611755.7,286046999.0,N
1508611775.5,286047001.0,N
1508611795.4,286047001.2,N
1508611815.2,286047001.0,N
1508611835.1,286047001.4,N
1508611836.0,286047001.4,N
1508611855.8,286047000.1,N
1508611875.6,286047000.8,N
1508611895.5,286047000.4,N
1508611915.3,286047002.0,N
1508611935.2,286047000.4,N
1508611955.9,286046998.6,N
1508611975.7,286046998.4,N
1508611995.6,286046999.9,N
1508612015.4,286047000.8,N
1508612035.2,286047002.2,N
1508612055.1,286047002.4,N
1508612056.0,286047002.4,N
1508612075.8,286046999.8,N
1508612095.7,286047002.6,N
1508612115.5,286047000.1,N
1508612135.3,286047000.5,N
1508612155.2,286047000.4,N
1508612175.0,286046998.4,N
1508612175.9,286046998.4,N
1508612195.8,286046999.9,N
1508612215.6,286047000.3,N
1508612235.4,286047000.9,N
1508612255.3,286047000.8,N
1508612275.1,286047000.6,N
1508612295.8,286047002.0,N
1508612315.7,286046999.8,N
1508612335.5,286046999.9,N
1508612355.4,286047002.1,N
1508612375.2,286047000.7,N
1508612395.0,286046998.2,N
1508612395.9,286046998.2,N
